Regional Weather Roundup
Issued by NWS

Home | Current Version | Previous Version | Graphics & Text | Print | Product List | Glossary On
Versions: 1 2 3 4 5 6 7 8 9 10 11 12 13 14 15 16 17 18 19 20 21 22 23 24 25 26 27 28 29 30 31 32 33 34 35 36 37 38 39 40 41 42 43 44 45 46 47 48 49 50
000
ASUS45 KBOU 301307
RWRCO

WEATHER ROUNDUP FOR COLORADO
NATIONAL WEATHER SERVICE DENVER/BOULDER CO
700 AM MDT THU MAR 30 2017

NOTE: "FAIR" INDICATES FEW OR NO CLOUDS BELOW 12000 FEET WITH NO
SIGNIFICANT WEATHER AND/OR OBSTRUCTIONS TO VISIBILITY.

COZ001>005-013-030-031-301400-
...NORTHWEST COLORADO...

CITY           SKY/WX    TMP DP  RH WIND       PRES   REMARKS
CRAIG          MOCLDY    32  27  81 W3        29.93F
HAYDEN         FAIR      34  25  69 SE10      29.94F WCI  26
MEEKER         CLOUDY    34  30  85 CALM      29.94F
MOUNT WERNER   NOT AVBL
STEAMBOAT SPGS CLOUDY    32  28  85 CALM      29.95F
WALDEN         NOT AVBL
$$

COZ006>008-011-301400-
...WEST CENTRAL VALLEYS...

CITY           SKY/WX    TMP DP  RH WIND       PRES   REMARKS
GRAND JUNCTION MOCLDY    41  29  62 E16       29.93F
MONTROSE       FAIR      36  26  67 S3        29.98F
EAGLE          PTCLDY    34  27  75 CALM      30.00F
RIFLE          CLOUDY    33  27  78 E5        29.96F WCI  29
DELTA          FAIR      33  26  75 CALM      29.98R
NUCLA          FAIR      34  25  69 CALM      30.02R
$$

COZ017>023-064>068-301400-
...SOUTHWEST COLORADO...

CITY           SKY/WX    TMP DP  RH WIND       PRES   REMARKS
DURANGO        FAIR      25  18  74 E5        30.00F WCI  19
CORTEZ         FAIR      28  23  81 E6        30.00S WCI  22
PAGOSA SPRINGS FAIR      29  19  66 CALM      30.03S
TELLURIDE      NOT AVBL
WOLF CREEK PAS FAIR      27   1  33 W8        30.15F WCI  18
$$

COZ009-010-012-014-032>034-037-058>063-301400-
...CENTRAL COLORADO...

CITY           SKY/WX    TMP DP  RH WIND       PRES   REMARKS
ASPEN          FAIR      32  24  72 SW8       29.97F WCI  25
BUENA VISTA    FAIR      38  19  47 NW9       29.97F
COPPER MTN     CLOUDY    27  21  80 MISG      30.07S
BERTHOUD PASS  HAZE      19   9  63 NW23G32   30.04R VSB<1/4 WCI   2
COTTONWOOD PAS FAIR      36  19  51 W15G23    30.00F
GUNNISON       FAIR      26  22  84 NW3       30.04F
KREMMLING      CLOUDY    36  32  87 CALM      29.99F
LEADVILLE      FAIR      28  18  66 N8        30.01F WCI  20
MONARCH PASS   FAIR      21  18  86 W26       30.17S WCI   4
SALIDA         FAIR      39  20  48 CALM      30.04F
SUNLIGHT       MOCLDY    27  19  74 SW10G18   30.07F WCI  17
WILKERSON PASS FAIR      27  19  74 NW10G21   30.03R WCI  17
$$

COZ069>075-301400-
...SAN LUIS VALLEY/SANGRE DE CRISTO MOUNTAINS...

CITY           SKY/WX    TMP DP  RH WIND       PRES   REMARKS
ALAMOSA        FAIR      24  20  84 W6        30.01S WCI  17
LA VETA PASS   NOT AVBL
SAGUACHE       FAIR      37  19  48 N6        30.01F
$$

COZ035-036-038>040-301400-
...NORTHERN COLORADO FRONT RANGE...

CITY           SKY/WX    TMP DP  RH WIND       PRES   REMARKS
DENVER INTL AP MOCLDY    36  29  75 W9        29.82S
DMNS CITY PARK   N/A     39  28  64 E8        29.83S
AURORA         MOCLDY    38  28  66 S9        29.83F
FRONT RANGE AP NOT AVBL
ERIE MUNI ARPT FAIR      33  32  96 S3          N/A
BOULDER MUN AP FAIR      37  32  81 CALM      29.81F
CENTENNIAL     FAIR      39  28  64 S8        29.83F
BROOMFIELD     MOCLDY    36  32  87 CALM      29.83F
FORT COLLINS   FAIR      32  31  96 S3        29.82F
LONGMONT       FAIR      33  30  90 CALM      29.84S
$$

COZ041-046-047-076>085-087-088-301400-
...PIKES PEAK/PALMER DIVIDE AND SOUTHERN FOOTHILLS...

CITY           SKY/WX    TMP DP  RH WIND       PRES   REMARKS
COLO. SPRINGS  MOCLDY    39  25  57 NW9       29.86S
A. F. ACADEMY  CLEAR     40  23  51 N5        29.86S
SCHRIEVER AFB  FAIR      41  24  50 NW14G21   29.86S
ELLICOTT       FAIR     N/A N/A N/A N3        29.84F
FALCON         FAIR      41  22  46 NW12      29.88S
FORT CARSON    FAIR      38  28  67 W6        29.85S
LIMON          FAIR      32  29  88 NW9       29.83F WCI  24
MONUMENT HILL  FAIR      32  25  74 SW10      29.89S WCI  24
TRINIDAD       FAIR      33  28  81 W13       29.87S WCI  24
$$

COZ042>045-048>051-090-091-301400-
...NORTHEAST COLORADO...

CITY           SKY/WX    TMP DP  RH WIND       PRES   REMARKS
GREELEY ARPT   FAIR      29  28  96 W3        29.83F
AKRON          FAIR      32  30  92 SW7       29.81S WCI  26
BURLINGTON     FAIR      34  31  88 W9        29.81S WCI  27
WRAY             N/A    N/A N/A N/A CALM      29.83S FOG
STERLING       FAIR      30  30 100 S5        29.80F WCI  25
HOLYOKE        FAIR      32  30  93 E5        29.83R WCI  27
FORT MORGAN    FAIR      31  30  95 W3        29.82F
$$

COZ086-089-092>099-301400-
...SOUTHEAST COLORADO...

CITY           SKY/WX    TMP DP  RH WIND       PRES   REMARKS
PUEBLO         FAIR      33  30  88 CALM      29.84F
LA JUNTA       FAIR      33  30  88 SW7       29.83R WCI  27
LAMAR          FAIR      34  32  92 SW10      29.81S WCI  26
SPRINGFIELD      N/A     35  31  85 W8        29.81S WCI  29
$$



USA.gov is the U.S. government's official web portal to all federal, state and local government web resources and services.